| time (UTC) | temp C | wind direction | speed KPH | gust KPH | rain 1hr cm | rain 24hr cm | rain mn cm | humidity % | barometer mb |
| 20260505070312 | 17 | 127 | 1.6 | 6.4 | 0.00 | 0.00 | 0.00 | 71 | 1016.8 |
| 20260505065309 | 17 | 159 | 4.8 | 16.1 | 0.00 | 0.00 | 0.00 | 71 | 1016.8 |
| 20260505064311 | 17 | 157 | 3.2 | 9.7 | 0.00 | 0.00 | 0.00 | 71 | 1016.7 |
| 20260505063329 | 17 | 190 | 3.2 | 9.7 | 0.00 | 0.00 | 0.00 | 71 | 1016.8 |
| 20260505062321 | 17 | 130 | 3.2 | 11.3 | 0.00 | 0.00 | 0.00 | 70 | 1016.8 |
| 20260505061318 | 17 | 142 | 3.2 | 14.5 | 0.00 | 0.00 | 0.00 | 70 | 1016.9 |
| 20260505060316 | 17 | 93 | 3.2 | 8.0 | 0.00 | 0.00 | 0.00 | 69 | 1017.0 |
| 20260505055310 | 17 | 135 | 3.2 | 11.3 | 0.00 | 0.00 | 0.00 | 69 | 1017.0 |
| 20260505054331 | 17 | 144 | 4.8 | 11.3 | 0.00 | 0.00 | 0.00 | 69 | 1017.1 |
| 20260505053318 | 18 | 144 | 4.8 | 8.0 | 0.00 | 0.00 | 0.00 | 68 | 1017.2 |
| 20260505052319 | 18 | 182 | 4.8 | 9.7 | 0.00 | 0.00 | 0.00 | 68 | 1017.2 |
| 20260505051312 | 18 | 170 | 3.2 | 11.3 | 0.00 | 0.00 | 0.00 | 68 | 1017.3 |
| 20260505050315 | 18 | 159 | 4.8 | 11.3 | 0.00 | 0.00 | 0.00 | 67 | 1017.3 |
| 20260505041321 | 18 | 192 | 4.8 | 11.3 | 0.00 | 0.00 | 0.00 | 67 | 1017.3 |
| 20260505040313 | 18 | 138 | 11.3 | 19.3 | 0.00 | 0.00 | 0.00 | 67 | 1017.3 |
| 20260505035331 | 18 | 127 | 4.8 | 14.5 | 0.00 | 0.00 | 0.00 | 67 | 1017.3 |
| 20260505034321 | 19 | 190 | 8.0 | 17.7 | 0.00 | 0.00 | 0.00 | 67 | 1017.3 |
| 20260505033345 | 19 | 161 | 6.4 | 16.1 | 0.00 | 0.00 | 0.00 | 67 | 1017.3 |
| 20260505032318 | 19 | 145 | 8.0 | 12.9 | 0.00 | 0.00 | 0.00 | 66 | 1017.3 |
| 20260505031337 | 19 | 131 | 8.0 | 19.3 | 0.00 | 0.00 | 0.00 | 66 | 1017.3 |
| 20260505030313 | 20 | 166 | 6.4 | 16.1 | 0.00 | 0.00 | 0.00 | 66 | 1017.3 |
| 20260505025319 | 20 | 135 | 8.0 | 24.1 | 0.00 | 0.00 | 0.00 | 65 | 1017.3 |
| 20260505024314 | 20 | 126 | 9.7 | 17.7 | 0.00 | 0.00 | 0.00 | 65 | 1017.3 |
| 20260505023316 | 20 | 148 | 8.0 | 19.3 | 0.00 | 0.00 | 0.00 | 65 | 1017.3 |
| 20260505022332 | 20 | 167 | 9.7 | 19.3 | 0.00 | 0.00 | 0.00 | 64 | 1017.2 |
| 20260505021310 | 20 | 148 | 6.4 | 17.7 | 0.00 | 0.00 | 0.00 | 64 | 1017.2 |
| 20260505020327 | 20 | 136 | 6.4 | 14.5 | 0.00 | 0.00 | 0.00 | 64 | 1017.1 |
| 20260505015330 | 20 | 141 | 8.0 | 16.1 | 0.00 | 0.00 | 0.00 | 63 | 1017.0 |
| 20260505014323 | 21 | 175 | 6.4 | 19.3 | 0.00 | 0.00 | 0.00 | 63 | 1016.9 |
| 20260505013320 | 21 | 76 | 6.4 | 19.3 | 0.00 | 0.00 | 0.00 | 63 | 1016.8 |
| 20260505012321 | 21 | 130 | 9.7 | 19.3 | 0.00 | 0.00 | 0.00 | 63 | 1016.7 |
| 20260505011319 | 21 | 184 | 8.0 | 17.7 | 0.00 | 0.00 | 0.00 | 62 | 1016.7 |
| 20260505010315 | 22 | 150 | 9.7 | 19.3 | 0.00 | 0.00 | 0.00 | 62 | 1016.6 |
| 20260505005317 | 22 | 136 | 6.4 | 16.1 | 0.00 | 0.00 | 0.00 | 61 | 1016.4 |
| 20260505004311 | 22 | 141 | 9.7 | 17.7 | 0.00 | 0.00 | 0.00 | 61 | 1016.2 |
| 20260505003334 | 22 | 131 | 9.7 | 14.5 | 0.00 | 0.00 | 0.00 | 60 | 1016.1 |
| 20260505002312 | 23 | 144 | 11.3 | 20.9 | 0.00 | 0.00 | 0.00 | 59 | 1016.0 |
| 20260505001335 | 23 | 132 | 11.3 | 19.3 | 0.00 | 0.00 | 0.00 | 56 | 1015.8 |
| 20260505000351 | 24 | 140 | 11.3 | 22.5 | 0.00 | 0.00 | 0.00 | 49 | 1015.7 |
| 20260504235328 | 25 | 114 | 6.4 | 14.5 | 0.00 | 0.00 | 0.00 | 43 | 1015.5 |
| 20260504234323 | 25 | 146 | 6.4 | 17.7 | 0.00 | 0.00 | 0.00 | 43 | 1015.4 |
| 20260504233327 | 25 | 153 | 6.4 | 22.5 | 0.00 | 0.00 | 0.00 | 41 | 1015.1 |
| 20260504232322 | 26 | 163 | 11.3 | 20.9 | 0.00 | 0.00 | 0.00 | 40 | 1015.0 |
| 20260504231318 | 26 | 93 | 4.8 | 20.9 | 0.00 | 0.00 | 0.00 | 41 | 1015.0 |
| 20260504230318 | 27 | 205 | 6.4 | 16.1 | 0.00 | 0.00 | 0.00 | 39 | 1015.0 |
| 20260504225314 | 27 | 212 | 4.8 | 14.5 | 0.00 | 0.00 | 0.00 | 38 | 1014.9 |
| 20260504224310 | 27 | 178 | 4.8 | 12.9 | 0.00 | 0.00 | 0.00 | 38 | 1015.0 |
| 20260504223313 | 27 | 126 | 8.0 | 17.7 | 0.00 | 0.00 | 0.00 | 39 | 1014.9 |
| 20260504222308 | 28 | 89 | 8.0 | 17.7 | 0.00 | 0.00 | 0.00 | 37 | 1014.9 |
| 20260504221310 | 28 | 153 | 6.4 | 16.1 | 0.00 | 0.00 | 0.00 | 37 | 1014.9 |
| 20260504220325 | 28 | 151 | 6.4 | 17.7 | 0.00 | 0.00 | 0.00 | 36 | 1015.0 |
| 20260504215348 | 28 | 157 | 9.7 | 17.7 | 0.00 | 0.00 | 0.00 | 35 | 1015.0 |
| 20260504214321 | 28 | 165 | 6.4 | 20.9 | 0.00 | 0.00 | 0.00 | 35 | 1015.1 |
| 20260504213320 | 28 | 110 | 8.0 | 24.1 | 0.00 | 0.00 | 0.00 | 37 | 1015.0 |
| 20260504212318 | 28 | 157 | 8.0 | 17.7 | 0.00 | 0.00 | 0.00 | 37 | 1015.0 |
| 20260504211315 | 28 | 142 | 8.0 | 17.7 | 0.00 | 0.00 | 0.00 | 35 | 1015.0 |
| 20260504210315 | 28 | 126 | 9.7 | 19.3 | 0.00 | 0.00 | 0.00 | 36 | 1015.1 |
| 20260504205310 | 29 | 235 | 6.4 | 20.9 | 0.00 | 0.00 | 0.00 | 36 | 1015.1 |
| 20260504204330 | 29 | 115 | 9.7 | 19.3 | 0.00 | 0.00 | 0.00 | 34 | 1015.1 |
| 20260504203320 | 29 | 175 | 6.4 | 17.7 | 0.00 | 0.00 | 0.00 | 35 | 1015.3 |
| 20260504202323 | 29 | 135 | 8.0 | 16.1 | 0.00 | 0.00 | 0.00 | 35 | 1015.4 |
| 20260504201314 | 28 | 205 | 3.2 | 12.9 | 0.00 | 0.00 | 0.00 | 36 | 1015.5 |
| 20260504200310 | 28 | 245 | 9.7 | 16.1 | 0.00 | 0.00 | 0.00 | 36 | 1015.5 |
| 20260504195313 | 29 | 121 | 8.0 | 22.5 | 0.00 | 0.00 | 0.00 | 37 | 1015.4 |
| 20260504194325 | 28 | 135 | 8.0 | 20.9 | 0.00 | 0.00 | 0.00 | 35 | 1015.6 |
| 20260504193325 | 28 | 109 | 8.0 | 19.3 | 0.00 | 0.00 | 0.00 | 35 | 1015.6 |
| 20260504192318 | 28 | 242 | 8.0 | 22.5 | 0.00 | 0.00 | 0.00 | 34 | 1015.8 |
| 20260504191336 | 28 | 63 | 9.7 | 19.3 | 0.00 | 0.00 | 0.00 | 35 | 1015.9 |
| 20260504190326 | 28 | 157 | 8.0 | 17.7 | 0.00 | 0.00 | 0.00 | 36 | 1016.1 |
| 20260504185345 | 28 | 146 | 6.4 | 19.3 | 0.00 | 0.00 | 0.00 | 36 | 1016.1 |
| 20260504184320 | 28 | 161 | 6.4 | 14.5 | 0.00 | 0.00 | 0.00 | 36 | 1016.2 |
| 20260504183318 | 28 | 200 | 4.8 | 19.3 | 0.00 | 0.00 | 0.00 | 37 | 1016.1 |
| 20260504182333 | 28 | 148 | 9.7 | 22.5 | 0.00 | 0.00 | 0.00 | 36 | 1016.4 |
| 20260504181323 | 27 | 216 | 6.4 | 24.1 | 0.00 | 0.00 | 0.00 | 38 | 1016.6 |
| 20260504180345 | 27 | 202 | 6.4 | 16.1 | 0.00 | 0.00 | 0.00 | 38 | 1016.8 |
| 20260504175342 | 27 | 155 | 4.8 | 19.3 | 0.00 | 0.00 | 0.00 | 39 | 1016.7 |
| 20260504174315 | 27 | 177 | 11.3 | 25.7 | 0.00 | 0.00 | 0.00 | 37 | 1016.9 |
| 20260504173332 | 27 | 215 | 8.0 | 17.7 | 0.00 | 0.00 | 0.00 | 42 | 1017.0 |
| 20260504172322 | 27 | 121 | 6.4 | 17.7 | 0.00 | 0.00 | 0.00 | 42 | 1017.2 |
| 20260504171314 | 27 | 231 | 8.0 | 17.7 | 0.00 | 0.00 | 0.00 | 42 | 1017.3 |
| 20260504170309 | 26 | 150 | 9.7 | 24.1 | 0.00 | 0.00 | 0.00 | 41 | 1017.4 |
| 20260504160312 | 25 | 116 | 8.0 | 17.7 | 0.00 | 0.00 | 0.00 | 47 | 1018.0 |
| 20260504150314 | 23 | 229 | 4.8 | 9.7 | 0.00 | 0.00 | 0.00 | 50 | 1018.4 |
| 20260504140321 | 22 | 111 | 3.2 | 6.4 | 0.00 | 0.00 | 0.00 | 60 | 1018.6 |
| 20260504130335 | 17 | 153 | 6.4 | 12.9 | 0.00 | 0.00 | 0.00 | 74 | 1018.5 |
| 20260504120314 | 13 | 180 | 6.4 | 11.3 | 0.00 | 0.00 | 0.00 | 85 | 1018.5 |
| 20260504110325 | 12 | 126 | 3.2 | 6.4 | 0.00 | 0.00 | 0.00 | 87 | 1018.7 |
| 20260504100309 | 12 | 171 | 1.6 | 6.4 | 0.00 | 0.00 | 0.00 | 84 | 1018.6 |
| 20260504081340 | 13 | 165 | 3.2 | 9.7 | 0.00 | 0.10 | 0.00 | 81 | 1018.5 |
| 20260504080321 | 13 | 200 | 4.8 | 11.3 | 0.00 | 0.10 | 0.00 | 81 | 1018.5 |